Location: Peterborough
(44.3048°N, 78.3199°W)
Time: 03:39:22
(UTC-04:00)

ISS - Pass Details

Date: 16 May 2025
Orbit: 415 x 418 km, 51.6° (Epoch: 20 June)

Event Time Altitude Azimuth Distance (km) Brightness Sun altitude
Rises 23:08:44 0° 299° (WNW) 2,361 1.0 -20.6°
Reaches altitude 10° 23:11:03 10° 312° (NW) 1,495 0.1 -20.8°
Maximum altitude 23:13:56 26° 12° (NNE) 855 -1.7 -21.0°
Enters shadow 23:15:29 19° 54° (NE) 1,076 -1.6 -21.2°
